Change the Weather History Date:

Monday, August 5, 2013

  Actual Average (KVPZ) Record (KVPZ)
Temperature  
Mean Temperature 60 °F 71 °F  
Max Temperature 72 °F 81 °F 89 °F (2001)
Min Temperature 50 °F 62 °F 55 °F (2013)
Degree Days  
Heating Degree Days 4 0  
Month to date heating degree days 0  
Since 1 June heating degree days 45  
Since 1 July heating degree days 4  
Cooling Degree Days 0 7  
Month to date cooling degree days 35  
Year to date cooling degree days 486  
Since 1 June cooling degree days 439  
Growing Degree Days 10 (Base 50)    
Moisture  
Dew Point 56 °F    
Average Humidity 80    
Maximum Humidity 100    
Minimum Humidity 66    
Precipitation  
Precipitation 0.00 in 0.13 in 0.42 in (2002)
Month to date precipitation 0.70  
Year to date precipitation 21.93  
Sea Level Pressure  
Sea Level Pressure 30.05 in    
Wind  
Wind Speed 2 mph (South)    
Max Wind Speed 9 mph    
Max Gust Speed 16 mph    
Visibility 10 miles    
Events Rain    
T = Trace of Precipitation, MM = Missing Value Source: NWS Daily Summary

Daily Weather History Graph

Daily Weather History Graph

Search for Another Location

Airport or City:

Trip Planner

Search our weather history database for the weather conditions in past years. The results will help you decide how hot, cold, wet, or windy it might be!

Date:

Astronomy

Aug. 05, 2013 Rise Set
Actual Time 5:45 AM CDT 7:59 PM CDT
Civil Twilight 5:14 AM CDT 8:30 PM CDT
Nautical Twilight 4:36 AM CDT 9:07 PM CDT
Astronomical Twilight 3:54 AM CDT 9:49 PM CDT
Moon 4:40 AM CDT (8/5) 6:59 PM CDT (8/5)
Length of Visible Light 15h 15m
Length of Day
14h 13m
Waning Crescent, 1% of the Moon is Illuminated
Aug 5
Waning Crescent
Aug 6
New
Aug 14
First Quarter
Aug 20
Full
Aug 28
Last Quarter

Hourly Weather History & Observations

Time (CDT) Temp. Dew Point Humidity Pressure Visibility Wind Dir Wind Speed Gust Speed Precip Events Conditions
12:15 AM 57.6 °F 53.8 °F 87% 30.16 in 10.0 mi Calm Calm - N/A   Clear
12:35 AM 56.3 °F 53.2 °F 89% 30.15 in 10.0 mi Calm Calm - N/A   Scattered Clouds
12:55 AM 54.9 °F 53.1 °F 94% 30.15 in 10.0 mi Calm Calm - N/A   Scattered Clouds
1:15 AM 54.5 °F 53.6 °F 97% 30.14 in 10.0 mi Calm Calm - N/A   Clear
1:35 AM 54.0 °F 53.2 °F 97% 30.14 in 10.0 mi Calm Calm - N/A   Clear
1:55 AM 53.6 °F 52.5 °F 96% 30.14 in 10.0 mi Calm Calm - N/A   Scattered Clouds
2:15 AM 52.7 °F 51.4 °F 95% 30.14 in 10.0 mi Calm Calm - N/A   Scattered Clouds
2:35 AM 52.7 °F 51.8 °F 97% 30.13 in 10.0 mi Calm Calm - N/A   Clear
2:55 AM 52.5 °F 51.3 °F 95% 30.12 in 10.0 mi Calm Calm - N/A   Clear
3:15 AM 52.7 °F 51.6 °F 96% 30.12 in 10.0 mi Calm Calm - N/A   Clear
3:35 AM 52.7 °F 51.3 °F 95% 30.12 in 10.0 mi Calm Calm - N/A   Mostly Cloudy
3:55 AM 52.5 °F 51.3 °F 95% 30.12 in 10.0 mi Calm Calm - N/A   Mostly Cloudy
4:15 AM 52.7 °F 52.5 °F 99% 30.11 in 10.0 mi Calm Calm - N/A   Mostly Cloudy
4:35 AM 53.2 °F 53.1 °F 99% 30.12 in 10.0 mi Calm Calm - N/A   Scattered Clouds
4:55 AM 52.5 °F 52.0 °F 98% 30.11 in 10.0 mi Calm Calm - N/A   Scattered Clouds
5:15 AM 51.8 °F 51.4 °F 99% 30.11 in 10.0 mi Calm Calm - N/A   Clear
5:35 AM 50.9 °F 50.9 °F 100% 30.11 in 10.0 mi Calm Calm - N/A   Scattered Clouds
5:55 AM 50.9 °F 50.9 °F 100% 30.11 in 10.0 mi Calm Calm - N/A   Clear
6:15 AM 51.3 °F 51.3 °F 100% 30.12 in 10.0 mi Calm Calm - N/A   Clear
6:35 AM 53.4 °F 53.4 °F 100% 30.11 in 10.0 mi Calm Calm - N/A   Clear
6:55 AM 55.9 °F 54.7 °F 96% 30.11 in 10.0 mi Calm Calm - N/A   Clear
7:15 AM 56.5 °F 53.1 °F 88% 30.11 in 10.0 mi Calm Calm - N/A   Clear
7:35 AM 57.6 °F 54.0 °F 88% 30.11 in 10.0 mi Calm Calm - N/A   Clear
7:55 AM 59.2 °F 53.8 °F 82% 30.11 in 10.0 mi ESE 3.5 mph - N/A   Clear
8:15 AM 61.2 °F 53.8 °F 77% 30.11 in 10.0 mi Calm Calm - N/A   Clear
8:35 AM 63.1 °F 53.2 °F 70% 30.11 in 10.0 mi ESE 3.5 mph - N/A   Clear
8:55 AM 64.0 °F 52.9 °F 67% 30.11 in 10.0 mi Calm Calm - N/A   Clear
9:15 AM 65.3 °F 53.6 °F 66% 30.11 in 10.0 mi Calm Calm - N/A   Clear
9:35 AM 65.8 °F 54.7 °F 67% 30.11 in 10.0 mi SSE 4.6 mph - N/A   Clear
9:55 AM 65.7 °F 55.2 °F 69% 30.11 in 10.0 mi SE 3.5 mph - N/A   Clear
10:15 AM 66.4 °F 56.1 °F 69% 30.10 in 10.0 mi SSE 3.5 mph - N/A   Clear
10:35 AM 68.0 °F 57.2 °F 68% 30.09 in 10.0 mi East 3.5 mph - N/A   Clear
10:55 AM 68.0 °F 56.7 °F 67% 30.08 in 10.0 mi South 4.6 mph - N/A   Clear
11:15 AM 68.9 °F 57.6 °F 67% 30.07 in 10.0 mi South 6.9 mph - N/A   Clear
11:35 AM 69.6 °F 58.3 °F 67% 30.05 in 10.0 mi South 6.9 mph - N/A   Clear
11:55 AM 70.5 °F 59.7 °F 69% 30.04 in 10.0 mi SSW 8.1 mph - N/A   Clear
12:15 PM 70.2 °F 59.2 °F 68% 30.03 in 10.0 mi SSW 6.9 mph - N/A   Scattered Clouds
12:35 PM 70.3 °F 60.1 °F 70% 30.04 in 10.0 mi SSW 5.8 mph - N/A Rain Light Rain
12:55 PM 71.2 °F 61.2 °F 70% 30.03 in 10.0 mi SSW 9.2 mph - N/A   Mostly Cloudy
1:15 PM 70.9 °F 60.1 °F 69% 30.03 in 10.0 mi SSW 9.2 mph - N/A   Mostly Cloudy
1:35 PM 70.0 °F 59.5 °F 69% 30.03 in 10.0 mi SW 8.1 mph - N/A   Mostly Cloudy
1:55 PM 71.1 °F 59.2 °F 66% 30.02 in 10.0 mi SSW 8.1 mph - N/A   Mostly Cloudy
2:15 PM 70.9 °F 59.2 °F 66% 30.01 in 10.0 mi SSW 5.8 mph - N/A   Mostly Cloudy
2:35 PM 71.1 °F 59.7 °F 67% 30.01 in 10.0 mi South 6.9 mph - N/A   Overcast
2:55 PM 71.4 °F 60.1 °F 67% 30.00 in 10.0 mi SSW 5.8 mph - N/A   Overcast
3:15 PM 71.6 °F 60.1 °F 67% 30.01 in 10.0 mi South 6.9 mph - N/A   Overcast
3:35 PM 71.6 °F 60.8 °F 69% 30.00 in 10.0 mi South 5.8 mph - N/A   Mostly Cloudy
3:55 PM 71.6 °F 60.6 °F 68% 30.00 in 10.0 mi SSW 6.9 mph - N/A   Mostly Cloudy
4:15 PM 71.6 °F 59.7 °F 66% 30.00 in 10.0 mi SSW 8.1 mph - N/A   Overcast
4:35 PM 70.7 °F 59.5 °F 68% 30.00 in 10.0 mi SSW 6.9 mph - N/A   Overcast
4:55 PM 70.2 °F 59.4 °F 69% 29.99 in 10.0 mi SSW 6.9 mph - N/A   Overcast
5:15 PM 69.3 °F 59.2 °F 70% 30.00 in 10.0 mi SW 8.1 mph - N/A   Overcast
5:35 PM 69.4 °F 57.6 °F 66% 29.99 in 10.0 mi SW 9.2 mph 16.1 mph N/A   Overcast
5:55 PM 68.7 °F 57.4 °F 67% 29.98 in 10.0 mi SW 6.9 mph - N/A   Overcast
6:15 PM 68.0 °F 57.7 °F 70% 29.98 in 10.0 mi SW 5.8 mph - N/A   Overcast
6:35 PM 67.5 °F 57.6 °F 70% 29.97 in 10.0 mi South 4.6 mph - N/A   Overcast
6:55 PM 67.1 °F 57.7 °F 72% 29.96 in 10.0 mi SSE 3.5 mph - N/A   Mostly Cloudy
7:15 PM 66.4 °F 58.3 °F 75% 29.96 in 10.0 mi South 3.5 mph - N/A   Overcast
7:35 PM 66.4 °F 58.3 °F 75% 29.95 in 10.0 mi South 5.8 mph - N/A   Overcast
7:55 PM 66.0 °F 58.3 °F 76% 29.95 in 10.0 mi SSE 4.6 mph - N/A   Overcast
8:15 PM 65.7 °F 58.3 °F 77% 29.95 in 10.0 mi SE 3.5 mph - N/A   Overcast
8:35 PM 65.5 °F 58.5 °F 78% 29.95 in 10.0 mi SSE 3.5 mph - N/A   Overcast
8:55 PM 65.3 °F 58.5 °F 78% 29.95 in 10.0 mi SE 3.5 mph - N/A   Overcast
9:15 PM 64.9 °F 58.8 °F 81% 29.95 in 10.0 mi SSE 4.6 mph - N/A   Overcast
9:35 PM 64.8 °F 59.2 °F 82% 29.95 in 10.0 mi Calm Calm - N/A   Overcast
9:55 PM 64.6 °F 59.4 °F 83% 29.95 in 10.0 mi SSE 3.5 mph - N/A   Overcast
10:15 PM 64.6 °F 59.4 °F 83% 29.95 in 10.0 mi Calm Calm - N/A   Overcast
10:35 PM 64.6 °F 59.5 °F 84% 29.95 in 10.0 mi SSE 4.6 mph - N/A   Overcast
10:55 PM 64.6 °F 59.5 °F 84% 29.95 in 10.0 mi South 6.9 mph - N/A   Overcast
11:15 PM 64.4 °F 59.9 °F 85% 29.94 in 10.0 mi South 3.5 mph - N/A   Overcast
11:35 PM 64.4 °F 59.9 °F 85% 29.94 in 10.0 mi South 4.6 mph - N/A   Overcast
11:55 PM 64.4 °F 59.7 °F 85% 29.94 in 10.0 mi SSW 4.6 mph - N/A   Overcast